Regional Weather Roundup
Issued by NWS

Home | Current Version | Previous Version | Graphics & Text | Print | Product List | Glossary On
Versions: 1 2 3 4 5 6 7 8 9 10 11 12 13 14 15 16 17 18 19 20 21 22 23 24 25 26 27 28 29 30 31 32 33 34 35 36 37 38 39 40 41 42 43 44 45 46 47 48 49 50
000
ASUS43 KMKX 231400
RWRWI

WISCONSIN REGIONAL WEATHER ROUNDUP
NATIONAL WEATHER SERVICE MILWAUKEE/SULLIVAN WI
900 AM CDT SAT SEP 23 2017

NOTE: "FAIR" INDICATES FEW OR NO CLOUDS BELOW 12,000 FEET WITH NO
SIGNIFICANT WEATHER AND/OR OBSTRUCTIONS TO VISIBILITY.

WIZ001-002-006>008-014>016-023>028-231500-
NORTHWEST WISCONSIN

CITY           SKY/WX    TMP DP  RH WIND       PRES   REMARKS
SUPERIOR ARPT  CLOUDY    67  66  96 CALM      29.93R
ASHLAND        MOSUNNY   77  68  73 S16       29.93R
HAYWARD        SUNNY     76  67  73 SW13      29.98R
SIREN          CLOUDY    75  66  75 SW8       29.96R
CUMBERLAND     MOSUNNY   72  64  78 S12       29.99R
RICE LAKE      MOSUNNY   74  67  76 S7        30.01R
CHETEK         MOSUNNY   74  69  83 S5        30.00R
LADYSMITH      SUNNY     74  67  79 S9        30.03R
EAU CLAIRE     NOT AVBL
MENOMONIE      MOSUNNY   76  68  76 S5        30.00R
NEW RICHMOND   SUNNY     73  65  77 S5        29.99R
OSCEOLA        MOSUNNY   75  67  76 S9        29.99S
$$

WIZ003>005-009-010-017-018-231500-
NORTH CENTRAL WISCONSIN

CITY           SKY/WX    TMP DP  RH WIND       PRES   REMARKS
MANITOWISH WTR NOT AVBL
ARBOR VITAE    SUNNY     72  66  82 SW9       30.03R
WOODRUFF       SUNNY     72  66  82 SW9       30.03R
RHINELANDER    SUNNY     74  66  76 SW8       30.06R
EAGLE RIVER    SUNNY     72  66  82 SW7       30.03R
LAND O LAKES   SUNNY     73  66  79 SW6       30.04R
PHILLIPS       CLOUDY    71  68  88 S7        30.02R
TOMAHAWK       SUNNY     69  64  86 CALM      30.05R
MEDFORD        SUNNY     71  65  82 S10       30.05R
MERRILL        SUNNY     74  66  78 SW6       30.06R
$$

WIZ029-030-035-036-043>047-231500-
CENTRAL WISCONSIN

CITY           SKY/WX    TMP DP  RH WIND       PRES   REMARKS
WAUSAU         SUNNY     73  65  75 SW5       30.05R
MOSINEE        SUNNY     73  66  78 SW6       30.07R
MARSHFIELD     SUNNY     74  64  71 S8        30.06R
STEVENS POINT  SUNNY     73  64  72 S7        30.06S
WAUPACA        SUNNY     71  69  93 CALM      30.07R
WAUTOMA        NOT AVBL
WISC RAPIDS    SUNNY     76  66  71 SW8       30.07S
CAMP DOUGLAS   NOT AVBL
$$

WIZ011>013-019>022-031-037>040-048>050-231500-
NORTHEAST WISCONSIN

CITY           SKY/WX    TMP DP  RH WIND       PRES   REMARKS
ANTIGO         SUNNY     72  66  81 SW9       30.07R
SHAWANO        SUNNY     73  66  78 SW3       30.05R
OCONTO         SUNNY     72  66  80 CALM      30.04S
STURGEON BAY   SUNNY     79  66  64 SW8       30.06R HX  81
GREEN BAY      SUNNY     76  69  79 S5        30.06R
MANITOWOC      SUNNY     76  68  76 SE3       30.08R
APPLETON       MOSUNNY   75  63  64 SW7       30.06R
CLINTONVILLE   SUNNY     73  64  73 CALM      30.05S
OSHKOSH        SUNNY     76  66  71 SW7       30.07R
$$

WIZ032>034-041-042-053>061-231500-
SOUTHWEST WISCONSIN

CITY           SKY/WX    TMP DP  RH WIND       PRES   REMARKS
LA CROSSE      SUNNY     78  67  68 S7        30.03R HX  80
SPARTA         SUNNY     74  65  75 CALM      30.06R
VIROQUA        SUNNY     74  66  77 S6        30.07R
BOSCOBEL       SUNNY     75  66  73 CALM      30.06R
PRAIRIE DU CHI SUNNY     73  62  68 E3        30.05R
PLATTEVILLE    SUNNY     74  67  79 SE7       30.08R
$$

WIZ056-057-062-063-064-067-068-231500-
SOUTH CENTRAL WISCONSIN

CITY           SKY/WX    TMP DP  RH WIND       PRES   REMARKS
REEDSBURG      SUNNY     74  65  74 S5        30.06S
BARABOO/DELLS  SUNNY     76  63  64 SW7       30.07S
LONE ROCK      NOT AVBL
MINERAL POINT  SUNNY     73  68  83 SE3       30.09S
MADISON        MOSUNNY   75  66  73 S7        30.08R
MIDDLETON      SUNNY     76  67  72 CALM      30.08S
WATERTOWN      SUNNY     73  67  83 S3        30.09R
MONROE         NOT AVBL
JANESVILLE     SUNNY     75  66  73 CALM      30.09R
$$

WIZ051-052-058>065-066-070>072-231500-
SOUTHEAST WISCONSIN

CITY           SKY/WX    TMP DP  RH WIND       PRES   REMARKS
MILWAUKEE      MOSUNNY   80  66  62 SW6       30.09R HX  82
WAUKESHA       SUNNY     75  64  69 SW6       30.11R
MILWAUKEE/TIMM SUNNY     79  63  57 SW3       30.09S HX  80
RACINE         SUNNY     80  68  66 S6        30.11R HX  83
BURLINGTON     SUNNY     75  68  77 CALM      30.09S
KENOSHA        SUNNY     80  66  62 S6        30.10R HX  82
FOND DU LAC    SUNNY     78  65  63 SW9       30.08R HX  80
SHEBOYGAN      SUNNY     77  71  82 S6        30.08R
WEST BEND        N/A     77  68  73 CALM      30.09R
JUNEAU         SUNNY     71  65  82 SE5       30.10R
$$

LSZ147-162-231500-
LAKE SUPERIOR

STATION/POSITION TIME  TEMP    WIND        PRES    WAVE
                       AIR SEA DIR/SP/G            HT/PER
                 (UTC) (F)     (DEG/KT/KT) (MB)    (FT/S)
W MID LAKE BUOY  1250   62 54  220/ 12/ 12 1011.5F   1/ 4
DEVILS ISLAND    1300   72     190/  7/  8 1011.8R
SAXON HARBOR     1330   77     190/  5/ 11 1012.9R
$$

LMZ867-665-643>646-231500-
LAKE MICHIGAN

STATION/POSITION TIME  TEMP    WIND        PRES    WAVE
                       AIR SEA DIR/SP/G            HT/PER
                 (UTC) (F)     (DEG/KT/KT) (MB)    (FT/S)
S GREEN BAY BUOY 1330   70 67  210/  8/ 10 1017.1R
N MID LAKE BUOY  1250   68 66  190/ 12/ 14 1017.5R   2/ 4
NORTHPORT PIER   1340   77     180/  3/  5 1016.9S
KEWAUNEE LAKESHO 1330   64     180/  5/  7 1016.9R
SHEBOYGAN LAKESH 1300   70     170/  9/  9 1017.7R
PORT WASHINGTON  1330   77     160/  4/  8 1019.3R
ATWATER BUOY     1209   72 66  130/  6/  8 1018.6
MILWAUKEE LAKESH 1330   71     160/  7/  7   N/A
S MID LAKE BUOY  1250   72 70  130/  6/  8 1019.1R   0
KENOSHA   LAKESH 1300   75     180/  4/  5 1018.6
$$

TC  - TEMPERATURE IN CELSIUS
VSB - VISIBILITY IN STATUTE MILES
WCI - WIND CHILL INDEX
HX  - HEAT INDEX





USA.gov is the U.S. government's official web portal to all federal, state and local government web resources and services.